星链-11248 (STARLINK-11248)

导读 | 豆包AI

STARLINK-11248是美国太空探索技术公司SpaceX星链星座的成员,于2024年8月31日发射入轨。星链项目旨在构建全球卫星互联网星座,为全球偏远地区、海洋等提供高速宽带网络服务,该卫星进一步扩充了星链星座规模,提升了星座的服务覆盖能力与网络稳定性。

Basic Information
目录编号:
60914
目录名称:
STARLINK-11248
国际标识:
2024-154M
轨道中心:
EARTH
卫星名称:
星链-11248
卫星全名:
星链-11248 (STARLINK-11248)
卫星状态:
已陨落 最后检测时间 2026-01-03
发射日期:
2024-08-31 UTC
国别 :
美国 (US)
星等 :
--
Orbit Information
数据来源 国际轨道数据
星历时间: 2025-12-30T10:50:23+0800
轨道信息已过期75天
半长轴: 6617.153km
偏心率: 0.0008206
轨道倾角: 53.134°
近地点辐角 337.153°
升交点赤经 106.294°
平近点角 22.914°
近地点: 233.585km
远地点: 244.447km
周期: 89.283分钟
每日圈数: 16.128576
Detailed Information
固有亮度:
5
最大亮度:
2.5
卫星平台:
Starlink V1.0
覆盖范围:
全球
运营商:
太空探索技术公司
运营商所在国:
美国
制造商(研发单位):
太空探索技术公司
制造商所在国:
美国
使用方式:
暂无
Satellite Introduction
Starlink 计划是 SpaceX 推出的全球卫星互联网项目,通过发射低轨道卫星,为全球尤其是偏远地区提供高速、低延迟的互联网服务。自 2019 年起,Starlink 已部署数千颗卫星,旨在缩小全球数字鸿沟,推动互联网普及。该项目还为军事、航空等行业提供通信支持,带来广泛经济效益。